| time (UTC) | temp C | wind direction | speed KPH | gust KPH | rain 1hr cm | rain 24hr cm | rain mn cm | humidity % | barometer mb |
| 20260508132440 | 7 | 265 | 3.2 | 11.3 | 0.00 | 0.00 | 0.00 | 99 | 1002.5 |
| 20260508131936 | 7 | 257 | 11.3 | 16.1 | 0.00 | 0.00 | 0.00 | 99 | 1002.2 |
| 20260508131431 | 6 | 248 | 9.7 | 11.3 | 0.00 | 0.00 | 0.00 | 99 | 1002.2 |
| 20260508130928 | 7 | 229 | 8.0 | 12.9 | 0.00 | 0.00 | 0.00 | 99 | 1002.2 |
| 20260508130426 | 6 | 222 | 9.7 | 14.5 | 0.00 | 0.00 | 0.00 | 99 | 1002.3 |
| 20260508125921 | 6 | 225 | 8.0 | 19.3 | 0.00 | 0.00 | 0.00 | 99 | 1002.3 |
| 20260508125417 | 6 | 250 | 11.3 | 14.5 | 0.00 | 0.00 | 0.00 | 99 | 1002.2 |
| 20260508124915 | 7 | 233 | 11.3 | 16.1 | 0.00 | 0.00 | 0.00 | 99 | 1002.3 |
| 20260508124413 | 7 | 203 | 9.7 | 11.3 | 0.00 | 0.00 | 0.00 | 99 | 1002.1 |
| 20260508123911 | 7 | 242 | 8.0 | 9.7 | 0.00 | 0.00 | 0.00 | 99 | 1002.1 |
| 20260508123409 | 7 | 191 | 6.4 | 11.3 | 0.00 | 0.00 | 0.00 | 99 | 1002.1 |
| 20260508122905 | 7 | 194 | 8.0 | 11.3 | 0.00 | 0.00 | 0.00 | 99 | 1002.2 |
| 20260508122402 | 7 | 210 | 4.8 | 11.3 | 0.00 | 0.00 | 0.00 | 99 | 1002.1 |
| 20260508121859 | 7 | 233 | 6.4 | 9.7 | 0.00 | 0.00 | 0.00 | 99 | 1002.2 |
| 20260508121357 | 7 | 229 | 9.7 | 16.1 | 0.00 | 0.00 | 0.00 | 99 | 1002.2 |
| 20260508120855 | 7 | 222 | 4.8 | 8.0 | 0.00 | 0.00 | 0.00 | 99 | 1002.1 |
| 20260508120352 | 7 | 226 | 4.8 | 8.0 | 0.00 | 0.00 | 0.00 | 99 | 1002.0 |
| 20260508115849 | 7 | 229 | 8.0 | 8.0 | 0.00 | 0.00 | 0.00 | 99 | 1002.1 |
| 20260508115347 | 7 | 204 | 6.4 | 9.7 | 0.00 | 0.00 | 0.00 | 99 | 1002.2 |
| 20260508114843 | 7 | 162 | 4.8 | 6.4 | 0.00 | 0.00 | 0.00 | 99 | 1001.9 |
| 20260508114340 | 7 | 223 | 6.4 | 6.4 | 0.00 | 0.00 | 0.00 | 99 | 1002.0 |
| 20260508113837 | 7 | 217 | 3.2 | 6.4 | 0.00 | 0.00 | 0.00 | 99 | 1002.0 |
| 20260508113335 | 7 | 235 | 4.8 | 8.0 | 0.00 | 0.00 | 0.00 | 99 | 1002.0 |
| 20260508112831 | 7 | 244 | 9.7 | 9.7 | 0.00 | 0.00 | 0.00 | 99 | 1002.0 |
| 20260508112329 | 7 | 89 | 0.0 | 3.2 | 0.00 | 0.00 | 0.00 | 99 | 1001.9 |
| 20260508111825 | 7 | 217 | 4.8 | 8.0 | 0.00 | 0.00 | 0.00 | 99 | 1002.0 |
| 20260508111322 | 7 | 214 | 0.0 | 3.2 | 0.00 | 0.00 | 0.00 | 99 | 1001.9 |
| 20260508110820 | 7 | 148 | 6.4 | 8.0 | 0.00 | 0.00 | 0.00 | 99 | 1002.0 |
| 20260508110317 | 7 | 146 | 4.8 | 6.4 | 0.00 | 0.00 | 0.00 | 99 | 1001.8 |
| 20260508105817 | 7 | 155 | 1.6 | 3.2 | 0.00 | 0.00 | 0.00 | 99 | 1001.9 |
| 20260508105314 | 7 | 132 | 4.8 | 8.0 | 0.00 | 0.00 | 0.00 | 99 | 1001.9 |
| 20260508104811 | 7 | 134 | 4.8 | 4.8 | 0.00 | 0.00 | 0.00 | 99 | 1002.1 |
| 20260508104307 | 7 | 140 | 1.6 | 6.4 | 0.00 | 0.00 | 0.00 | 99 | 1001.7 |
| 20260508103805 | 7 | 171 | 6.4 | 8.0 | 0.00 | 0.00 | 0.00 | 99 | 1002.0 |
| 20260508103301 | 7 | 178 | 8.0 | 11.3 | 0.00 | 0.00 | 0.00 | 99 | 1002.1 |
| 20260508102759 | 7 | 187 | 6.4 | 8.0 | 0.00 | 0.00 | 0.00 | 99 | 1001.9 |
| 20260508102257 | 6 | 154 | 8.0 | 9.7 | 0.00 | 0.00 | 0.00 | 99 | 1002.0 |
| 20260508101754 | 6 | 160 | 6.4 | 11.3 | 0.00 | 0.00 | 0.00 | 99 | 1002.0 |
| 20260508101251 | 6 | 164 | 11.3 | 12.9 | 0.00 | 0.00 | 0.00 | 99 | 1002.1 |
| 20260508100749 | 6 | 176 | 8.0 | 12.9 | 0.00 | 0.00 | 0.00 | 99 | 1002.3 |
| 20260508100247 | 6 | 187 | 8.0 | 11.3 | 0.00 | 0.00 | 0.00 | 99 | 1002.1 |
| 20260508095742 | 6 | 188 | 4.8 | 8.0 | 0.00 | 0.00 | 0.00 | 99 | 1001.9 |
| 20260508095240 | 6 | 197 | 6.4 | 8.0 | 0.00 | 0.00 | 0.00 | 99 | 1002.0 |
| 20260508094737 | 6 | 193 | 4.8 | 6.4 | 0.00 | 0.00 | 0.00 | 99 | 1001.7 |
| 20260508094234 | 6 | 169 | 4.8 | 6.4 | 0.00 | 0.00 | 0.00 | 99 | 1001.7 |
| 20260508093731 | 6 | 137 | 6.4 | 8.0 | 0.00 | 0.00 | 0.00 | 99 | 1001.8 |
| 20260508093229 | 6 | 141 | 3.2 | 4.8 | 0.00 | 0.00 | 0.00 | 99 | 1001.4 |
| 20260508092726 | 6 | 116 | 4.8 | 4.8 | 0.00 | 0.00 | 0.00 | 99 | 1001.6 |
| 20260508092224 | 6 | 126 | 1.6 | 4.8 | 0.00 | 0.00 | 0.00 | 99 | 1001.6 |
| 20260508091721 | 6 | 138 | 4.8 | 6.4 | 0.00 | 0.00 | 0.00 | 99 | 1001.3 |
| 20260508091218 | 6 | 132 | 4.8 | 6.4 | 0.00 | 0.00 | 0.00 | 99 | 1001.6 |
| 20260508090716 | 6 | 115 | 4.8 | 6.4 | 0.00 | 0.00 | 0.00 | 99 | 1001.4 |
| 20260508090213 | 6 | 120 | 3.2 | 6.4 | 0.00 | 0.00 | 0.00 | 99 | 1001.4 |
| 20260508085709 | 6 | 110 | 6.4 | 6.4 | 0.00 | 0.00 | 0.00 | 99 | 1001.5 |
| 20260508085207 | 6 | 121 | 4.8 | 6.4 | 0.00 | 0.00 | 0.00 | 99 | 1001.3 |
| 20260508084702 | 5 | 132 | 6.4 | 8.0 | 0.00 | 0.00 | 0.00 | 99 | 1001.6 |
| 20260508084200 | 5 | 155 | 6.4 | 9.7 | 0.00 | 0.00 | 0.00 | 99 | 1001.7 |
| 20260508083657 | 5 | 128 | 8.0 | 9.7 | 0.00 | 0.00 | 0.00 | 99 | 1001.3 |
| 20260508083155 | 5 | 134 | 6.4 | 8.0 | 0.00 | 0.00 | 0.00 | 99 | 1001.6 |
| 20260508082649 | 5 | 130 | 4.8 | 4.8 | 0.00 | 0.00 | 0.00 | 99 | 1001.4 |
| 20260508082147 | 6 | 119 | 4.8 | 4.8 | 0.00 | 0.00 | 0.00 | 99 | 1001.6 |
| 20260508081645 | 5 | 119 | 1.6 | 3.2 | 0.00 | 0.00 | 0.00 | 99 | 1001.7 |
| 20260508081141 | 5 | 92 | 4.8 | 8.0 | 0.00 | 0.00 | 0.00 | 99 | 1001.7 |
| 20260508080639 | 5 | 28 | 1.6 | 4.8 | 0.00 | 0.00 | 0.00 | 99 | 1001.7 |
| 20260508080137 | 6 | 24 | 3.2 | 4.8 | 0.00 | 0.00 | 0.00 | 99 | 1001.7 |
| 20260508075633 | 6 | 221 | 3.2 | 3.2 | 0.00 | 0.00 | 0.00 | 99 | 1001.7 |
| 20260508075130 | 5 | 116 | 1.6 | 1.6 | 0.00 | 0.00 | 0.00 | 99 | 1001.9 |
| 20260508074628 | 5 | 156 | 3.2 | 4.8 | 0.00 | 0.00 | 0.00 | 99 | 1001.9 |
| 20260508074124 | 5 | 133 | 4.8 | 4.8 | 0.00 | 0.00 | 0.00 | 99 | 1002.2 |
| 20260508073621 | 5 | 170 | 3.2 | 4.8 | 0.00 | 0.00 | 0.00 | 99 | 1001.8 |
| 20260508073119 | 5 | 193 | 4.8 | 4.8 | 0.00 | 0.00 | 0.00 | 99 | 1001.9 |
| 20260508072614 | 5 | 221 | 4.8 | 6.4 | 0.00 | 0.00 | 0.00 | 99 | 1001.6 |
| 20260508072112 | 5 | 219 | 4.8 | 4.8 | 0.00 | 0.00 | 0.00 | 99 | 1001.4 |
| 20260508071610 | 6 | 255 | 0.0 | 3.2 | 0.00 | 0.00 | 0.00 | 99 | 1001.3 |
| 20260508071108 | 6 | 284 | 3.2 | 4.8 | 0.00 | 0.00 | 0.00 | 99 | 1001.5 |
| 20260508070605 | 6 | 127 | 6.4 | 8.0 | 0.00 | 0.00 | 0.00 | 99 | 1001.3 |
| 20260508065600 | 6 | 121 | 8.0 | 8.0 | 0.00 | 0.00 | 0.00 | 99 | 1001.0 |
| 20260508065058 | 6 | 121 | 8.0 | 8.0 | 0.00 | 0.00 | 0.00 | 99 | 1000.9 |
| 20260508064555 | 6 | 118 | 8.0 | 9.7 | 0.00 | 0.00 | 0.00 | 99 | 1001.0 |
| 20260508064053 | 6 | 111 | 9.7 | 9.7 | 0.00 | 0.00 | 0.00 | 99 | 1001.4 |
| 20260508063550 | 6 | 128 | 6.4 | 6.4 | 0.00 | 0.00 | 0.00 | 99 | 1001.5 |
| 20260508063048 | 6 | 123 | 4.8 | 6.4 | 0.00 | 0.00 | 0.00 | 99 | 1001.6 |
| 20260508062545 | 7 | 148 | 3.2 | 4.8 | 0.00 | 0.00 | 0.00 | 99 | 1001.9 |
| 20260508062042 | 6 | 137 | 1.6 | 3.2 | 0.00 | 0.00 | 0.00 | 99 | 1001.7 |
| 20260508061540 | 6 | 130 | 4.8 | 4.8 | 0.00 | 0.00 | 0.00 | 99 | 1001.7 |
| 20260508061036 | 6 | 130 | 4.8 | 6.4 | 0.00 | 0.00 | 0.00 | 99 | 1001.8 |
| 20260508060533 | 7 | 131 | 4.8 | 6.4 | 0.00 | 0.00 | 0.00 | 99 | 1001.6 |
| 20260508060031 | 7 | 127 | 6.4 | 6.4 | 0.00 | 0.00 | 0.00 | 99 | 1001.7 |
| 20260508055526 | 7 | 131 | 4.8 | 4.8 | 0.00 | 0.00 | 0.00 | 99 | 1001.5 |
| 20260508055024 | 7 | 161 | 3.2 | 3.2 | 0.00 | 0.00 | 0.00 | 99 | 1001.6 |
| 20260508054520 | 7 | 174 | 1.6 | 1.6 | 0.00 | 0.00 | 0.00 | 99 | 1001.6 |
| 20260508054017 | 7 | 221 | 0.0 | 4.8 | 0.00 | 0.00 | 0.00 | 99 | 1001.5 |
| 20260508053514 | 7 | 213 | 3.2 | 4.8 | 0.00 | 0.00 | 0.00 | 99 | 1002.1 |
| 20260508053013 | 7 | 135 | 0.0 | 1.6 | 0.00 | 0.00 | 0.00 | 99 | 1001.7 |
| 20260508052509 | 7 | 160 | 3.2 | 4.8 | 0.00 | 0.00 | 0.00 | 99 | 1001.8 |
| 20260508052005 | 7 | 145 | 3.2 | 4.8 | 0.00 | 0.00 | 0.00 | 99 | 1002.0 |
| 20260508051502 | 7 | 165 | 1.6 | 1.6 | 0.00 | 0.00 | 0.00 | 99 | 1002.0 |
| 20260508050957 | 7 | 214 | 3.2 | 4.8 | 0.00 | 0.00 | 0.00 | 99 | 1001.9 |
| 20260508050454 | 7 | 238 | 3.2 | 4.8 | 0.00 | 0.00 | 0.00 | 99 | 1001.9 |
| 20260508045950 | 7 | 227 | 4.8 | 4.8 | 0.00 | 0.00 | 0.00 | 99 | 1001.9 |
| 20260508045448 | 7 | 203 | 3.2 | 3.2 | 0.00 | 0.00 | 0.00 | 99 | 1002.0 |
| 20260508044945 | 7 | 199 | 1.6 | 3.2 | 0.00 | 0.00 | 0.00 | 99 | 1002.1 |
| 20260508044442 | 7 | 186 | 1.6 | 3.2 | 0.00 | 0.00 | 0.00 | 99 | 1002.1 |
| 20260508043937 | 7 | 175 | 0.0 | 3.2 | 0.00 | 0.00 | 0.00 | 99 | 1002.1 |
| 20260508043435 | 7 | 202 | 3.2 | 4.8 | 0.00 | 0.00 | 0.00 | 99 | 1002.0 |
| 20260508042931 | 7 | 214 | 3.2 | 3.2 | 0.00 | 0.00 | 0.00 | 99 | 1001.9 |
| 20260508042429 | 8 | 200 | 0.0 | 3.2 | 0.00 | 0.00 | 0.00 | 99 | 1001.7 |
| 20260508041926 | 8 | 220 | 1.6 | 4.8 | 0.00 | 0.00 | 0.00 | 99 | 1001.6 |
| 20260508041422 | 8 | 214 | 3.2 | 4.8 | 0.00 | 0.00 | 0.00 | 99 | 1001.6 |
| 20260508040919 | 8 | 235 | 3.2 | 4.8 | 0.00 | 0.00 | 0.00 | 99 | 1001.7 |
| 20260508040416 | 8 | 230 | 3.2 | 4.8 | 0.00 | 0.00 | 0.00 | 99 | 1001.8 |
| 20260508035914 | 8 | 224 | 1.6 | 4.8 | 0.00 | 0.00 | 0.00 | 99 | 1001.9 |
| 20260508035411 | 8 | 223 | 4.8 | 4.8 | 0.00 | 0.00 | 0.00 | 99 | 1001.7 |
| 20260508034907 | 8 | 216 | 4.8 | 4.8 | 0.00 | 0.00 | 0.00 | 99 | 1001.9 |
| 20260508034405 | 8 | 215 | 4.8 | 4.8 | 0.00 | 0.00 | 0.00 | 99 | 1001.9 |
| 20260508033901 | 8 | 183 | 6.4 | 6.4 | 0.00 | 0.00 | 0.00 | 99 | 1001.9 |
| 20260508033400 | 8 | 198 | 4.8 | 4.8 | 0.00 | 0.00 | 0.00 | 99 | 1002.2 |
| 20260508032857 | 8 | 194 | 3.2 | 6.4 | 0.00 | 0.00 | 0.00 | 99 | 1002.1 |
| 20260508032354 | 8 | 183 | 3.2 | 4.8 | 0.00 | 0.00 | 0.00 | 99 | 1002.2 |
| 20260508031851 | 8 | 185 | 3.2 | 4.8 | 0.00 | 0.00 | 0.00 | 99 | 1002.1 |
| 20260508031348 | 8 | 196 | 6.4 | 6.4 | 0.00 | 0.00 | 0.00 | 99 | 1002.2 |
| 20260508030844 | 8 | 179 | 4.8 | 4.8 | 0.00 | 0.00 | 0.00 | 99 | 1002.2 |
| 20260508030341 | 8 | 190 | 4.8 | 6.4 | 0.00 | 0.00 | 0.00 | 99 | 1002.1 |
| 20260508025838 | 8 | 169 | 6.4 | 8.0 | 0.00 | 0.81 | 0.81 | 99 | 1001.9 |
| 20260508025335 | 8 | 183 | 4.8 | 6.4 | 0.00 | 0.81 | 0.81 | 99 | 1002.2 |
| 20260508024832 | 8 | 210 | 4.8 | 6.4 | 0.00 | 0.81 | 0.81 | 99 | 1002.4 |
| 20260508024328 | 8 | 232 | 3.2 | 4.8 | 0.00 | 0.81 | 0.81 | 99 | 1002.1 |
| 20260508023825 | 8 | 223 | 3.2 | 4.8 | 0.00 | 0.81 | 0.81 | 99 | 1002.3 |
| 20260508023322 | 8 | 227 | 4.8 | 4.8 | 0.00 | 0.81 | 0.81 | 99 | 1002.0 |
| 20260508022819 | 8 | 206 | 3.2 | 3.2 | 0.00 | 0.81 | 0.81 | 99 | 1002.1 |
| 20260508022314 | 8 | 156 | 3.2 | 3.2 | 0.00 | 0.81 | 0.81 | 99 | 1002.2 |
| 20260508021812 | 8 | 180 | 4.8 | 4.8 | 0.00 | 0.81 | 0.81 | 99 | 1002.4 |
| 20260508021307 | 8 | 154 | 3.2 | 4.8 | 0.00 | 0.81 | 0.81 | 99 | 1002.3 |
| 20260508020804 | 8 | 147 | 3.2 | 4.8 | 0.00 | 0.81 | 0.81 | 99 | 1001.9 |
| 20260508020302 | 8 | 149 | 3.2 | 4.8 | 0.00 | 0.81 | 0.81 | 99 | 1002.1 |
| 20260508015758 | 8 | 155 | 4.8 | 6.4 | 0.00 | 0.81 | 0.81 | 99 | 1002.1 |
| 20260508015256 | 9 | 162 | 4.8 | 4.8 | 0.00 | 0.81 | 0.81 | 99 | 1002.1 |
| 20260508014752 | 9 | 136 | 3.2 | 4.8 | 0.00 | 0.81 | 0.81 | 99 | 1002.0 |
| 20260508014249 | 9 | 118 | 1.6 | 3.2 | 0.00 | 0.81 | 0.81 | 99 | 1002.2 |
| 20260508013745 | 9 | 150 | 4.8 | 4.8 | 0.00 | 0.81 | 0.81 | 99 | 1002.2 |
| 20260508013242 | 9 | 152 | 1.6 | 3.2 | 0.00 | 0.81 | 0.81 | 99 | 1002.3 |
| 20260508012739 | 9 | 137 | 3.2 | 4.8 | 0.00 | 0.81 | 0.81 | 99 | 1002.2 |
| 20260508012236 | 9 | 149 | 3.2 | 3.2 | 0.00 | 0.81 | 0.81 | 99 | 1001.9 |
| 20260508011734 | 9 | 142 | 4.8 | 6.4 | 0.00 | 0.81 | 0.81 | 99 | 1001.8 |
| 20260508011231 | 9 | 107 | 6.4 | 8.0 | 0.00 | 0.81 | 0.81 | 99 | 1001.7 |
| 20260508010728 | 9 | 108 | 4.8 | 6.4 | 0.00 | 0.81 | 0.81 | 99 | 1001.8 |
| 20260508010226 | 9 | 83 | 4.8 | 6.4 | 0.00 | 0.81 | 0.81 | 99 | 1001.8 |
| 20260508005723 | 9 | 77 | 4.8 | 4.8 | 0.00 | 0.81 | 0.81 | 99 | 1001.9 |
| 20260508005220 | 9 | 71 | 3.2 | 4.8 | 0.00 | 0.81 | 0.81 | 99 | 1001.9 |
| 20260508004715 | 9 | 25 | 4.8 | 6.4 | 0.00 | 0.81 | 0.81 | 99 | 1001.7 |
| 20260508004212 | 9 | 11 | 6.4 | 8.0 | 0.00 | 0.81 | 0.81 | 99 | 1001.7 |
| 20260508003708 | 9 | 14 | 6.4 | 6.4 | 0.00 | 0.81 | 0.81 | 99 | 1001.9 |
| 20260508003206 | 9 | 341 | 3.2 | 4.8 | 0.00 | 0.81 | 0.81 | 99 | 1002.0 |
| 20260508002702 | 9 | 330 | 1.6 | 4.8 | 0.00 | 0.81 | 0.81 | 99 | 1002.1 |
| 20260508002200 | 9 | 319 | 6.4 | 6.4 | 0.00 | 0.81 | 0.81 | 99 | 1002.2 |
| 20260508001655 | 9 | 276 | 4.8 | 6.4 | 0.00 | 0.81 | 0.81 | 99 | 1002.1 |
| 20260508001151 | 9 | 302 | 3.2 | 4.8 | 0.00 | 0.81 | 0.81 | 99 | 1002.0 |
| 20260508000647 | 9 | 255 | 3.2 | 3.2 | 0.00 | 0.81 | 0.81 | 99 | 1001.6 |
| 20260508000145 | 9 | 246 | 3.2 | 4.8 | 0.00 | 0.81 | 0.81 | 99 | 1001.5 |
| 20260507235641 | 9 | 235 | 1.6 | 3.2 | 0.00 | 0.81 | 0.81 | 99 | 1001.7 |
| 20260507235139 | 9 | 247 | 1.6 | 4.8 | 0.00 | 0.81 | 0.81 | 99 | 1001.3 |
| 20260507234635 | 9 | 238 | 4.8 | 4.8 | 0.00 | 0.81 | 0.81 | 99 | 1001.5 |
| 20260507234132 | 9 | 232 | 4.8 | 6.4 | 0.00 | 0.81 | 0.81 | 99 | 1001.5 |
| 20260507233629 | 9 | 226 | 4.8 | 6.4 | 0.00 | 0.81 | 0.81 | 99 | 1001.7 |
| 20260507233127 | 9 | 234 | 4.8 | 4.8 | 0.00 | 0.81 | 0.81 | 99 | 1001.5 |
| 20260507232625 | 9 | 229 | 0.0 | 3.2 | 0.00 | 0.81 | 0.81 | 99 | 1001.6 |
| 20260507232121 | 10 | 253 | 1.6 | 4.8 | 0.00 | 0.81 | 0.81 | 99 | 1001.5 |
| 20260507231617 | 10 | 210 | 3.2 | 4.8 | 0.00 | 0.81 | 0.81 | 99 | 1001.6 |
| 20260507231114 | 10 | 224 | 0.0 | 4.8 | 0.00 | 0.81 | 0.81 | 99 | 1001.5 |
| 20260507230611 | 10 | 199 | 3.2 | 4.8 | 0.00 | 0.81 | 0.81 | 99 | 1001.6 |
| 20260507230108 | 10 | 206 | 4.8 | 4.8 | 0.00 | 0.81 | 0.81 | 99 | 1001.6 |
| 20260507225602 | 10 | 222 | 0.0 | 4.8 | 0.00 | 0.81 | 0.81 | 99 | 1001.7 |
| 20260507225059 | 10 | 225 | 3.2 | 4.8 | 0.00 | 0.81 | 0.81 | 99 | 1001.4 |
| 20260507224555 | 10 | 214 | 1.6 | 4.8 | 0.00 | 0.81 | 0.81 | 99 | 1001.4 |
| 20260507224052 | 10 | 225 | 1.6 | 3.2 | 0.00 | 0.81 | 0.81 | 99 | 1001.3 |
| 20260507223548 | 10 | 235 | 0.0 | 3.2 | 0.00 | 0.81 | 0.81 | 99 | 1001.3 |
| 20260507223045 | 10 | 242 | 3.2 | 6.4 | 0.00 | 0.81 | 0.81 | 99 | 1001.4 |
| 20260507222542 | 10 | 231 | 4.8 | 6.4 | 0.00 | 0.81 | 0.81 | 99 | 1001.3 |
| 20260507222038 | 10 | 184 | 3.2 | 4.8 | 0.00 | 0.81 | 0.81 | 99 | 1001.4 |
| 20260507221535 | 10 | 221 | 3.2 | 6.4 | 0.00 | 0.81 | 0.81 | 99 | 1001.6 |
| 20260507221032 | 9 | 223 | 4.8 | 4.8 | 0.00 | 0.81 | 0.81 | 99 | 1001.3 |
| 20260507220529 | 10 | 218 | 4.8 | 4.8 | 0.00 | 0.81 | 0.81 | 99 | 1001.3 |
| 20260507220026 | 10 | 236 | 4.8 | 4.8 | 0.00 | 0.81 | 0.81 | 99 | 1001.1 |
| 20260507215522 | 10 | 242 | 3.2 | 4.8 | 0.00 | 0.81 | 0.81 | 99 | 1001.1 |
| 20260507215020 | 9 | 240 | 4.8 | 4.8 | 0.00 | 0.81 | 0.81 | 99 | 1001.2 |
| 20260507214517 | 9 | 215 | 3.2 | 4.8 | 0.00 | 0.81 | 0.81 | 99 | 1001.2 |
| 20260507214013 | 9 | 207 | 4.8 | 6.4 | 0.00 | 0.81 | 0.81 | 99 | 1001.3 |
| 20260507213510 | 9 | 214 | 4.8 | 8.0 | 0.00 | 0.81 | 0.81 | 99 | 1001.3 |
| 20260507213007 | 9 | 211 | 4.8 | 8.0 | 0.00 | 0.81 | 0.81 | 99 | 1001.0 |
| 20260507212502 | 8 | 225 | 6.4 | 9.7 | 0.00 | 0.81 | 0.81 | 99 | 1001.4 |
| 20260507211959 | 8 | 223 | 8.0 | 11.3 | 0.00 | 0.81 | 0.81 | 99 | 1001.4 |
| 20260507211456 | 8 | 213 | 8.0 | 9.7 | 0.00 | 0.81 | 0.81 | 99 | 1001.3 |
| 20260507210952 | 8 | 225 | 9.7 | 11.3 | 0.00 | 0.81 | 0.81 | 99 | 1001.6 |
| 20260507210449 | 8 | 243 | 4.8 | 11.3 | 0.00 | 0.81 | 0.81 | 99 | 1001.6 |
| 20260507205946 | 8 | 227 | 9.7 | 11.3 | 0.00 | 0.81 | 0.81 | 99 | 1001.4 |
| 20260507205443 | 9 | 232 | 8.0 | 8.0 | 0.00 | 0.81 | 0.81 | 99 | 1001.2 |
| 20260507204939 | 9 | 231 | 8.0 | 11.3 | 0.00 | 0.81 | 0.81 | 99 | 1001.3 |
| 20260507204436 | 9 | 229 | 8.0 | 11.3 | 0.00 | 0.81 | 0.81 | 99 | 1001.0 |
| 20260507203934 | 9 | 221 | 6.4 | 9.7 | 0.00 | 0.81 | 0.81 | 99 | 1001.2 |
| 20260507203431 | 9 | 235 | 8.0 | 12.9 | 0.00 | 0.81 | 0.81 | 99 | 1001.2 |
| 20260507202928 | 9 | 236 | 9.7 | 9.7 | 0.00 | 0.81 | 0.81 | 99 | 1001.2 |
| 20260507202424 | 9 | 245 | 8.0 | 14.5 | 0.00 | 0.81 | 0.81 | 99 | 1001.1 |
| 20260507201920 | 9 | 243 | 9.7 | 14.5 | 0.00 | 0.81 | 0.81 | 99 | 1000.9 |
| 20260507201415 | 9 | 239 | 12.9 | 16.1 | 0.00 | 0.81 | 0.81 | 99 | 1000.8 |
| 20260507200912 | 9 | 245 | 14.5 | 16.1 | 0.00 | 0.81 | 0.81 | 99 | 1001.1 |
| 20260507200408 | 9 | 242 | 9.7 | 16.1 | 0.00 | 0.81 | 0.81 | 99 | 1001.1 |
| 20260507195904 | 10 | 237 | 14.5 | 16.1 | 0.00 | 0.81 | 0.81 | 99 | 1000.9 |
| 20260507195402 | 10 | 243 | 9.7 | 12.9 | 0.00 | 0.81 | 0.81 | 99 | 1000.9 |
| 20260507194859 | 10 | 247 | 12.9 | 12.9 | 0.00 | 0.81 | 0.81 | 99 | 1000.8 |
| 20260507194355 | 10 | 240 | 12.9 | 17.7 | 0.00 | 0.81 | 0.81 | 99 | 1001.1 |
| 20260507193851 | 10 | 237 | 11.3 | 14.5 | 0.00 | 0.81 | 0.81 | 99 | 1000.8 |
| 20260507193349 | 10 | 229 | 11.3 | 11.3 | 0.00 | 0.81 | 0.81 | 99 | 1000.9 |
| 20260507192845 | 10 | 240 | 9.7 | 11.3 | 0.00 | 0.81 | 0.81 | 99 | 1000.8 |
| 20260507192341 | 10 | 228 | 9.7 | 11.3 | 0.00 | 0.81 | 0.81 | 99 | 1000.7 |
| 20260507191838 | 10 | 259 | 6.4 | 9.7 | 0.00 | 0.81 | 0.81 | 99 | 1000.7 |
| 20260507191334 | 10 | 245 | 9.7 | 12.9 | 0.00 | 0.81 | 0.81 | 99 | 1001.0 |
| 20260507190831 | 10 | 267 | 11.3 | 17.7 | 0.00 | 0.81 | 0.81 | 99 | 1000.8 |
| 20260507190329 | 10 | 244 | 9.7 | 17.7 | 0.00 | 0.81 | 0.81 | 98 | 1000.8 |
| 20260507185828 | 11 | 244 | 14.5 | 22.5 | 0.00 | 0.81 | 0.81 | 98 | 1000.8 |
| 20260507185324 | 12 | 216 | 12.9 | 20.9 | 0.00 | 0.81 | 0.81 | 99 | 1000.5 |
| 20260507184822 | 12 | 214 | 8.0 | 16.1 | 0.00 | 0.81 | 0.81 | 99 | 1000.4 |
| 20260507184320 | 12 | 186 | 14.5 | 20.9 | 0.00 | 0.81 | 0.81 | 99 | 1000.7 |
| 20260507183816 | 12 | 203 | 16.1 | 24.1 | 0.00 | 0.81 | 0.81 | 99 | 1000.7 |
| 20260507183313 | 12 | 170 | 14.5 | 25.7 | 0.00 | 0.81 | 0.81 | 99 | 1000.6 |
| 20260507182811 | 12 | 183 | 22.5 | 24.1 | 0.00 | 0.81 | 0.81 | 99 | 1000.1 |
| 20260507182307 | 11 | 175 | 22.5 | 25.7 | 0.00 | 0.81 | 0.81 | 99 | 1000.3 |
| 20260507181802 | 11 | 171 | 16.1 | 25.7 | 0.00 | 0.81 | 0.81 | 99 | 999.7 |
| 20260507181259 | 11 | 147 | 14.5 | 25.7 | 0.00 | 0.81 | 0.81 | 99 | 999.5 |
| 20260507180755 | 11 | 166 | 20.9 | 29.0 | 0.00 | 0.81 | 0.81 | 99 | 1000.7 |
| 20260507180253 | 11 | 170 | 22.5 | 24.1 | 0.13 | 0.81 | 0.81 | 99 | 1000.4 |
| 20260507175748 | 11 | 179 | 17.7 | 25.7 | 0.13 | 0.81 | 0.81 | 99 | 1001.1 |
| 20260507175245 | 11 | 196 | 16.1 | 25.7 | 0.00 | 0.79 | 0.79 | 99 | 1001.7 |
| 20260507174742 | 11 | 174 | 27.4 | 35.4 | 0.00 | 0.79 | 0.79 | 99 | 1001.3 |
| 20260507174240 | 11 | 175 | 19.3 | 30.6 | 0.05 | 0.79 | 0.79 | 99 | 1000.8 |
| 20260507173738 | 11 | 175 | 25.7 | 35.4 | 0.05 | 0.79 | 0.79 | 99 | 1000.8 |
| 20260507173234 | 11 | 165 | 19.3 | 29.0 | 0.05 | 0.79 | 0.79 | 99 | 1000.2 |
| 20260507172731 | 11 | 163 | 14.5 | 29.0 | 0.13 | 0.79 | 0.79 | 99 | 1000.0 |
| 20260507172228 | 11 | 151 | 20.9 | 29.0 | 0.18 | 0.76 | 0.76 | 99 | 1000.5 |
| 20260507171728 | 11 | 171 | 20.9 | 25.7 | 0.13 | 0.74 | 0.74 | 99 | 1001.0 |
| 20260507171226 | 11 | 172 | 16.1 | 32.2 | 0.13 | 0.74 | 0.74 | 99 | 1000.8 |
| 20260507170722 | 11 | 170 | 20.9 | 25.7 | 0.05 | 0.71 | 0.71 | 99 | 1000.9 |
| 20260507170219 | 11 | 184 | 20.9 | 29.0 | 0.00 | 0.71 | 0.71 | 99 | 1001.5 |
| 20260507165715 | 12 | 168 | 22.5 | 29.0 | 0.05 | 0.71 | 0.71 | 98 | 1001.3 |
| 20260507165211 | 12 | 178 | 22.5 | 29.0 | 0.05 | 0.71 | 0.71 | 98 | 1001.7 |
| 20260507164707 | 12 | 173 | 24.1 | 32.2 | 0.00 | 0.71 | 0.71 | 98 | 1001.5 |
| 20260507164205 | 12 | 189 | 25.7 | 29.0 | 0.00 | 0.71 | 0.71 | 98 | 1001.1 |
| 20260507163701 | 12 | 171 | 16.1 | 27.4 | 0.18 | 0.71 | 0.71 | 98 | 1000.9 |
| 20260507163159 | 12 | 176 | 22.5 | 27.4 | 0.36 | 0.69 | 0.69 | 98 | 1001.2 |
| 20260507162655 | 12 | 170 | 29.0 | 29.0 | 0.43 | 0.66 | 0.66 | 98 | 1001.3 |
| 20260507162151 | 12 | 196 | 12.9 | 22.5 | 0.36 | 0.64 | 0.64 | 98 | 1001.9 |
| 20260507161648 | 12 | 174 | 16.1 | 30.6 | 0.36 | 0.61 | 0.61 | 98 | 1002.0 |
| 20260507161144 | 12 | 166 | 20.9 | 25.7 | 0.30 | 0.56 | 0.56 | 98 | 1001.9 |
| 20260507160641 | 12 | 166 | 20.9 | 25.7 | 0.18 | 0.53 | 0.53 | 98 | 1002.1 |
| 20260507160138 | 12 | 166 | 24.1 | 27.4 | 0.13 | 0.51 | 0.51 | 98 | 1001.6 |
| 20260507155633 | 12 | 193 | 11.3 | 24.1 | 0.13 | 0.51 | 0.51 | 98 | 1001.8 |
| 20260507155130 | 12 | 190 | 19.3 | 25.7 | 0.13 | 0.48 | 0.48 | 98 | 1001.8 |
| 20260507154626 | 12 | 186 | 17.7 | 25.7 | 0.13 | 0.48 | 0.48 | 98 | 1001.9 |
| 20260507154124 | 12 | 192 | 19.3 | 27.4 | 0.13 | 0.46 | 0.46 | 98 | 1002.4 |
| 20260507153620 | 12 | 196 | 14.5 | 22.5 | 0.18 | 0.46 | 0.46 | 98 | 1002.5 |
| 20260507153117 | 12 | 194 | 17.7 | 32.2 | 0.30 | 0.46 | 0.46 | 97 | 1003.0 |
| 20260507152613 | 11 | 198 | 14.5 | 33.8 | 0.36 | 0.43 | 0.43 | 97 | 1003.3 |
| 20260507152109 | 11 | 221 | 14.5 | 27.4 | 0.53 | 0.41 | 0.41 | 97 | 1003.1 |
| 20260507151605 | 11 | 209 | 19.3 | 27.4 | 0.61 | 0.36 | 0.36 | 97 | 1003.4 |
| 20260507151103 | 11 | 207 | 11.3 | 27.4 | 0.71 | 0.30 | 0.30 | 96 | 1003.0 |
| 20260507150600 | 11 | 194 | 11.3 | 30.6 | 0.89 | 0.25 | 0.25 | 95 | 1003.5 |
| 20260507150056 | 12 | 216 | 19.3 | 27.4 | 0.61 | 0.15 | 0.15 | 94 | 1003.4 |
| 20260507145551 | 12 | 223 | 17.7 | 25.7 | 0.36 | 0.08 | 0.08 | 93 | 1003.0 |
| 20260507145050 | 12 | 212 | 14.5 | 27.4 | 0.18 | 0.05 | 0.05 | 91 | 1002.8 |
| 20260507144546 | 13 | 202 | 22.5 | 25.7 | 0.00 | 0.03 | 0.03 | 90 | 1002.7 |
| 20260507144044 | 13 | 208 | 11.3 | 25.7 | 0.00 | 0.03 | 0.03 | 89 | 1002.9 |
| 20260507143540 | 13 | 213 | 24.1 | 32.2 | 0.00 | 0.03 | 0.03 | 89 | 1002.8 |
| 20260507143038 | 13 | 201 | 32.2 | 32.2 | 0.00 | 0.03 | 0.03 | 89 | 1003.1 |
| 20260507142533 | 13 | 201 | 20.9 | 24.1 | 0.00 | 0.03 | 0.03 | 89 | 1002.7 |
| 20260507142030 | 13 | 196 | 16.1 | 27.4 | 0.00 | 0.03 | 0.03 | 89 | 1002.9 |
| 20260507141526 | 13 | 203 | 16.1 | 24.1 | 0.00 | 0.03 | 0.03 | 88 | 1002.9 |
| 20260507141023 | 13 | 195 | 17.7 | 30.6 | 0.00 | 0.03 | 0.03 | 88 | 1002.7 |
| 20260507140520 | 14 | 177 | 29.0 | 38.6 | 0.00 | 0.03 | 0.03 | 88 | 1002.4 |
| 20260507140018 | 13 | 181 | 22.5 | 35.4 | 0.00 | 0.03 | 0.03 | 89 | 1002.3 |
| 20260507135514 | 13 | 168 | 37.0 | 38.6 | 0.00 | 0.03 | 0.03 | 89 | 1002.4 |
| 20260507135011 | 13 | 183 | 24.1 | 38.6 | 0.00 | 0.03 | 0.03 | 89 | 1002.3 |
| 20260507134508 | 13 | 174 | 27.4 | 37.0 | 0.00 | 0.03 | 0.03 | 89 | 1002.7 |
| 20260507134003 | 13 | 175 | 17.7 | 40.2 | 0.00 | 0.03 | 0.03 | 89 | 1002.5 |
| 20260507133459 | 13 | 177 | 22.5 | 41.8 | 0.00 | 0.03 | 0.03 | 89 | 1002.8 |
| 20260507132958 | 13 | 175 | 29.0 | 46.7 | 0.00 | 0.03 | 0.03 | 89 | 1003.0 |